This is the latest recevied weather packets stored in our database for station/object SV1RVP-13. If no packets are shown the sender has not sent any weather packets the latest 10 day(s).
| Time | Temp. | Humidity | Pressure | Rain* | Wind** | Luminosity | Snow |
|---|---|---|---|---|---|---|---|
| 1778069910 | 24.44° C | 45% | 1015.7 hPa | 0 mm | - | - | - |
| 1778069309 | 24.44° C | 47% | 1015.7 hPa | 0 mm | - | - | - |
| 1778068723 | 23.89° C | 48% | 1015.9 hPa | 0 mm | - | - | - |
| 1778068125 | 23.89° C | 48% | 1016 hPa | 0 mm | - | - | - |
| 1778067513 | 23.89° C | 47% | 1016 hPa | 0 mm | - | - | - |
| 1778066915 | 23.89° C | 47% | 1016.1 hPa | 0 mm | - | - | - |
| 1778066307 | 24.44° C | 46% | 1016 hPa | 0 mm | - | - | - |
| 1778065709 | 24.44° C | 46% | 1016 hPa | 0 mm | - | - | - |
| 1778065108 | 23.89° C | 46% | 1016 hPa | 0 mm | - | - | - |
| 1778064525 | 24.44° C | 46% | 1016.1 hPa | 0 mm | - | - | - |
| 1778063913 | 23.89° C | 43% | 1016.1 hPa | 0 mm | - | - | - |
| 1778063316 | 24.44° C | 45% | 1016.1 hPa | 0 mm | - | - | - |
| 1778062736 | 24.44° C | 44% | 1016.1 hPa | 0 mm | - | - | - |
| 1778062107 | 24.44° C | 44% | 1016 hPa | 0 mm | - | - | - |
| 1778061522 | 23.89° C | 46% | 1016 hPa | 0 mm | - | - | - |
| 1778060922 | 24.44° C | 47% | 1016.1 hPa | 0 mm | - | - | - |
| 1778060312 | 24.44° C | 48% | 1016.2 hPa | 0 mm | - | - | - |
| 1778059720 | 23.89° C | 49% | 1016.2 hPa | 0 mm | - | - | - |
| 1778059111 | 23.89° C | 47% | 1016.3 hPa | 0 mm | - | - | - |
| 1778058511 | 23.89° C | 49% | 1016.4 hPa | 0 mm | - | - | - |
| 1778057924 | 23.89° C | 48% | 1016.3 hPa | 0 mm | - | - | - |
| 1778057319 | 23.33° C | 48% | 1016.1 hPa | 0 mm | - | - | - |
| 1778056711 | 23.33° C | 52% | 1016.1 hPa | 0 mm | - | - | - |
| 1778056112 | 23.33° C | 50% | 1016.1 hPa | 0 mm | - | - | - |
| 1778055532 | 22.78° C | 51% | 1016.2 hPa | 0 mm | - | - | - |
* Rain since midnight (hover to see other rain measurements)
** Current wind speed in m/s (hover to see current wind gust speed)